Provincetown, MA

4:39 PM EDT on April 25, 2017 (GMT -0400)
Provincetown Municipal

Weather History for KPVC - January, 2013

Change the Weather History Date:

Thursday, January 10, 2013

  Actual Average Record
Temperature  
Mean Temperature 42 °F -  
Max Temperature 46 °F 35 °F 55 °F (2016)
Min Temperature 39 °F 25 °F 10 °F (2004)
Degree Days  
Heating Degree Days 22    
Moisture  
Dew Point 29 °F    
Average Humidity 57    
Maximum Humidity 70    
Minimum Humidity 46    
Precipitation  
Precipitation 0.00 in - - ()
Sea Level Pressure  
Sea Level Pressure 30.32 in    
Wind  
Wind Speed 19 mph (NW)    
Max Wind Speed 30 mph    
Max Gust Speed 40 mph    
Visibility 10 miles    
Events      
Averages and records for this station are not official NWS values.
T = Trace of Precipitation, MM = Missing Value Source: NWS Daily Summary

Daily Weather History Graph

Daily Weather History Graph

Search for Another Location

Airport or City:

Trip Planner

Search our weather history database for the weather conditions in past years. The results will help you decide how hot, cold, wet, or windy it might be!

Date:

Astronomy

Jan. 10, 2013 Rise Set
Actual Time 7:08 AM EST 4:29 PM EST
Civil Twilight 6:37 AM EST 5:00 PM EST
Nautical Twilight 6:02 AM EST 5:34 PM EST
Astronomical Twilight 5:28 AM EST 6:08 PM EST
Moon 5:45 AM EST (1/10) 3:33 PM EST (1/10)
Length of Visible Light 10h 23m
Length of Day
9h 20m
Waning Crescent, 2% of the Moon is Illuminated
Jan 10
Waning Crescent
Jan 11
New
Jan 18
First Quarter
Jan 26
Full
Feb 3
Last Quarter

Hourly Weather History & Observations

Time (EST) Temp. Windchill Dew Point Humidity Pressure Visibility Wind Dir Wind Speed Gust Speed Precip Events Conditions
12:15 AM 44.6 °F 36.4 °F 33.8 °F 66% 30.05 in 10.0 mi West 20.7 mph 27.6 mph N/A   Clear
1:35 AM 42.8 °F 35.1 °F 32.0 °F 66% 30.07 in 10.0 mi West 16.1 mph 25.3 mph N/A   Clear
1:55 AM 42.8 °F 35.1 °F 30.2 °F 61% 30.07 in 10.0 mi West 16.1 mph - N/A   Clear
2:15 AM 42.8 °F 35.4 °F 33.8 °F 70% 30.07 in 10.0 mi West 15.0 mph - N/A   Clear
2:35 AM 42.8 °F 35.8 °F 33.8 °F 70% 30.07 in 10.0 mi West 13.8 mph - N/A   Clear
2:55 AM 42.8 °F 35.8 °F 32.0 °F 66% 30.07 in 10.0 mi West 13.8 mph 19.6 mph N/A   Clear
3:15 AM 42.8 °F 32.5 °F 30.2 °F 61% 30.09 in 10.0 mi WNW 28.8 mph 36.8 mph N/A   Mostly Cloudy
3:35 AM 44.6 °F 35.3 °F 30.2 °F 57% 30.11 in 10.0 mi WNW 26.5 mph 36.8 mph N/A   Scattered Clouds
3:55 AM 42.8 °F 32.3 °F 28.4 °F 57% 30.12 in 10.0 mi WNW 29.9 mph 40.3 mph N/A   Partly Cloudy
4:35 AM 42.8 °F 34.3 °F 30.2 °F 61% 30.15 in 10.0 mi WNW 19.6 mph 31.1 mph N/A   Clear
4:55 AM 42.8 °F 33.5 °F 30.2 °F 61% 30.16 in 10.0 mi WNW 23.0 mph 35.7 mph N/A   Clear
5:15 AM 42.8 °F 34.0 °F 28.4 °F 57% 30.17 in 10.0 mi WNW 20.7 mph 36.8 mph N/A   Clear
5:35 AM 42.8 °F 33.5 °F 28.4 °F 57% 30.18 in 10.0 mi NW 23.0 mph 34.5 mph N/A   Clear
5:55 AM 42.8 °F 33.8 °F 28.4 °F 57% 30.19 in 10.0 mi NW 21.9 mph 33.4 mph N/A   Clear
6:15 AM 42.8 °F 33.5 °F 28.4 °F 57% 30.21 in 10.0 mi NW 23.0 mph 31.1 mph N/A   Clear
6:35 AM 42.8 °F 34.0 °F 28.4 °F 57% 30.22 in 10.0 mi NW 20.7 mph 31.1 mph N/A   Clear
7:15 AM 42.8 °F 34.3 °F 28.4 °F 57% 30.25 in 10.0 mi NW 19.6 mph 31.1 mph N/A   Clear
7:35 AM 42.8 °F 33.5 °F 26.6 °F 53% 30.26 in 10.0 mi WNW 23.0 mph 32.2 mph N/A   Clear
7:55 AM 42.8 °F 34.0 °F 26.6 °F 53% 30.27 in 10.0 mi WNW 20.7 mph 32.2 mph N/A   Clear
8:55 AM 42.8 °F 34.3 °F 26.6 °F 53% 30.31 in 10.0 mi WNW 19.6 mph 29.9 mph N/A   Clear
9:15 AM 42.8 °F 34.3 °F 26.6 °F 53% 30.31 in 10.0 mi WNW 19.6 mph 29.9 mph N/A   Clear
9:55 AM 44.6 °F 36.4 °F 26.6 °F 49% 30.33 in 10.0 mi NW 20.7 mph 33.4 mph N/A   Clear
10:15 AM 44.6 °F 36.1 °F 24.8 °F 46% 30.32 in 10.0 mi NW 21.9 mph 29.9 mph N/A   Clear
10:35 AM 44.6 °F 36.1 °F 26.6 °F 49% 30.33 in 10.0 mi WNW 21.9 mph 29.9 mph N/A   Clear
10:55 AM 44.6 °F 36.6 °F 26.6 °F 49% 30.33 in 10.0 mi WNW 19.6 mph 29.9 mph N/A   Clear
11:15 AM 44.6 °F 36.4 °F 24.8 °F 46% 30.32 in 10.0 mi NW 20.7 mph 29.9 mph N/A   Clear
11:35 AM 44.6 °F 37.2 °F 26.6 °F 49% 30.31 in 10.0 mi NW 17.3 mph 26.5 mph N/A   Clear
11:55 AM 44.6 °F 36.9 °F 26.6 °F 49% 30.32 in 10.0 mi NW 18.4 mph 27.6 mph N/A   Clear
12:35 PM 44.6 °F 37.2 °F 26.6 °F 49% 30.31 in 10.0 mi NW 17.3 mph 26.5 mph N/A   Clear
12:55 PM 46.4 °F 39.0 °F 28.4 °F 50% 30.31 in 10.0 mi NW 19.6 mph 25.3 mph N/A   Clear
1:15 PM 46.4 °F 39.2 °F 28.4 °F 50% 30.32 in 10.0 mi NW 18.4 mph 25.3 mph N/A   Clear
1:35 PM 46.4 °F 40.4 °F 28.4 °F 50% 30.34 in 10.0 mi NW 13.8 mph 25.3 mph N/A   Clear
1:55 PM 46.4 °F 39.8 °F 28.4 °F 50% 30.34 in 10.0 mi NW 16.1 mph 23.0 mph N/A   Clear
2:15 PM 46.4 °F 39.2 °F 28.4 °F 50% 30.35 in 10.0 mi NW 18.4 mph 21.9 mph N/A   Clear
2:35 PM 46.4 °F 40.1 °F 28.4 °F 50% 30.36 in 10.0 mi NW 15.0 mph 23.0 mph N/A   Clear
2:55 PM 44.6 °F 37.2 °F 28.4 °F 53% 30.38 in 10.0 mi NW 17.3 mph 23.0 mph N/A   Clear
3:35 PM 44.6 °F 38.1 °F 30.2 °F 57% 30.38 in 10.0 mi NW 13.8 mph 20.7 mph N/A   Clear
3:55 PM 44.6 °F 37.8 °F 28.4 °F 53% 30.39 in 10.0 mi NW 15.0 mph - N/A   Clear
4:15 PM 44.6 °F 37.4 °F 28.4 °F 53% 30.40 in 10.0 mi NW 16.1 mph 20.7 mph N/A   Clear
4:35 PM 42.8 °F 36.2 °F 28.4 °F 57% 30.39 in 10.0 mi NW 12.7 mph - N/A   Clear
4:55 PM 42.8 °F 34.8 °F 28.4 °F 57% 30.41 in 10.0 mi NW 17.3 mph 21.9 mph N/A   Clear
5:15 PM 42.8 °F 35.1 °F 30.2 °F 61% 30.41 in 10.0 mi WNW 16.1 mph 24.2 mph N/A   Clear
5:35 PM 42.8 °F 35.1 °F 28.4 °F 57% 30.44 in 10.0 mi NW 16.1 mph 23.0 mph N/A   Clear
6:15 PM 42.8 °F 33.8 °F 28.4 °F 57% 30.44 in 10.0 mi WNW 21.9 mph 26.5 mph N/A   Clear
6:35 PM 42.8 °F 34.5 °F 26.6 °F 53% 30.44 in 10.0 mi NW 18.4 mph 26.5 mph N/A   Clear
6:55 PM 42.8 °F 34.5 °F 28.4 °F 57% 30.46 in 10.0 mi NW 18.4 mph 25.3 mph N/A   Clear
7:15 PM 42.8 °F 34.3 °F 26.6 °F 53% 30.46 in 10.0 mi NW 19.6 mph 26.5 mph N/A   Clear
7:35 PM 42.8 °F 34.8 °F 26.6 °F 53% 30.47 in 10.0 mi NNW 17.3 mph 24.2 mph N/A   Clear
7:55 PM 41.0 °F 32.5 °F 26.6 °F 57% 30.48 in 10.0 mi NNW 17.3 mph 25.3 mph N/A   Clear
8:35 PM 41.0 °F 32.2 °F 26.6 °F 57% 30.49 in 10.0 mi NW 18.4 mph 23.0 mph N/A   Clear
8:55 PM 39.2 °F 29.6 °F 28.4 °F 65% 30.49 in 10.0 mi NW 19.6 mph - N/A   Clear
9:15 PM 39.2 °F 30.8 °F 28.4 °F 65% 30.50 in 10.0 mi NW 15.0 mph 21.9 mph N/A   Clear
9:35 PM 39.2 °F 30.8 °F 28.4 °F 65% 30.50 in 10.0 mi NNW 15.0 mph 21.9 mph N/A   Clear
9:55 PM 39.2 °F 30.8 °F 28.4 °F 65% 30.50 in 10.0 mi NNW 15.0 mph 21.9 mph N/A   Clear
10:15 PM 39.2 °F 30.5 °F 28.4 °F 65% 30.51 in 10.0 mi NNW 16.1 mph - N/A   Clear
10:55 PM 39.2 °F 31.2 °F 28.4 °F 65% 30.51 in 10.0 mi NNW 13.8 mph - N/A   Clear
11:15 PM 39.2 °F 31.2 °F 30.2 °F 70% 30.51 in 10.0 mi NNW 13.8 mph - N/A   Clear
11:35 PM 39.2 °F 30.5 °F 30.2 °F 70% 30.51 in 10.0 mi NNW 16.1 mph 21.9 mph N/A   Clear
11:55 PM 39.2 °F 31.6 °F 30.2 °F 70% 30.51 in 10.0 mi NNW 12.7 mph - N/A   Clear